KD8BMB Weather Reports


time (UTC)temp
F
wind
direction
speed
knots
gust
knots
rain 1hr
in
rain 24hr
in
rain mn
in
humidity
%
barometer
mb
20260903152217 72 224 0.9 0.9 0.00 0.07 0.07 99 1014.6
20260903151717 73 310 2.6 4.3 0.00 0.07 0.07 99 1015.4
20260903151212 75 308 2.6 4.3 0.00 0.07 0.07 99 1015.2
20260903150707 75 312 0.0 0.0 0.00 0.07 0.07 99 1015.2
20260903150202 76 306 0.0 0.0 0.00 0.07 0.07 99 1015.1
20260903145702 76 249 0.9 1.7 0.00 0.07 0.07 99 1014.7
20260903145157 76 301 0.9 0.9 0.00 0.07 0.07 99 1014.4
20260903144656 77 296 0.9 0.9 0.05 0.07 0.07 99 1013.6
20260903144152 77 349 0.0 0.0 0.35 0.07 0.07 99 1013.3
20260903143648 77 298 0.0 0.0 0.35 0.07 0.07 99 1013.3
20260903143143 78 181 2.6 2.6 0.19 0.04 0.04 97 1013.3
20260903142639 78 311 4.3 6.1 0.00 0.01 0.01 93 1014.3
20260903142135 79 322 0.0 0.0 0.00 0.01 0.01 92 1013.7
20260903141631 80 316 0.9 0.9 0.00 0.01 0.01 89 1013.7
20260903141125 81 56 0.0 0.0 0.00 0.01 0.01 88 1013.2
20260903140622 80 45 0.0 0.0 0.00 0.01 0.01 90 1013.5
20260903140117 78 53 0.0 0.0 0.00 0.01 0.01 92 1013.4
20260903135613 79 299 0.0 0.0 0.00 0.01 0.01 91 1013.5
20260903135112 79 61 0.0 0.0 0.00 0.01 0.01 91 1013.6
20260903134611 78 316 0.0 0.0 0.00 0.01 0.01 93 1013.4
20260903134108 78 305 0.0 0.0 0.00 0.01 0.01 94 1013.7
20260903133605 77 307 0.0 0.0 0.00 0.01 0.01 97 1013.7
20260903133101 76 321 0.0 0.0 0.00 0.01 0.01 98 1014.0
20260903132556 75 265 0.0 0.0 0.00 0.01 0.01 99 1013.8
20260903132050 75 256 0.0 0.0 0.00 0.01 0.01 99 1014.0
20260903131549 75 60 0.0 0.0 0.00 0.01 0.01 99 1013.6
20260903131043 74 74 0.0 0.0 0.05 0.01 0.01 99 1013.8
20260903130538 74 68 0.0 0.0 0.05 0.01 0.01 99 1013.9
20260903130033 73 51 0.0 0.0 0.00 0.00 0.00 99 1013.9
20260903125531 73 84 0.0 0.0 0.00 0.00 0.00 99 1013.8
20260903125027 73 312 0.0 0.0 0.00 0.00 0.00 99 1013.7
20260903124527 73 312 0.0 0.0 0.00 0.00 0.00 99 1013.9
20260903124021 72 285 0.0 0.0 0.00 0.00 0.00 99 1014.0
20260903123521 72 82 0.0 0.0 0.00 0.00 0.00 99 1013.9
20260903123020 72 345 0.0 0.0 0.00 0.00 0.00 99 1014.0
20260903122514 71 41 0.0 0.0 0.00 0.00 0.00 99 1014.0
20260903122014 71 352 0.0 0.0 0.00 0.00 0.00 99 1014.1
20260903121509 70 267 0.0 0.0 0.00 0.00 0.00 99 1013.9
20260903121005 70 314 0.0 0.0 0.00 0.00 0.00 99 1014.1
20260903120503 70 343 0.0 0.0 0.00 0.00 0.00 99 1013.9
20260903120002 69 321 0.0 0.0 0.00 0.00 0.00 99 1013.8
20260903115456 69 310 0.0 0.0 0.00 0.00 0.00 99 1014.1
20260903114956 69 310 0.0 0.0 0.00 0.00 0.00 99 1014.0
20260903114451 69 297 0.0 0.0 0.00 0.00 0.00 99 1014.1
20260903113947 69 297 0.0 0.0 0.00 0.00 0.00 99 1013.8
20260903113443 69 289 0.0 0.0 0.00 0.00 0.00 99 1013.8
20260903112938 69 317 0.0 0.0 0.00 0.00 0.00 99 1013.7
20260903112434 68 320 0.0 0.0 0.00 0.00 0.00 99 1013.8
20260903111933 68 295 0.0 0.0 0.00 0.00 0.00 99 1013.8
20260903111427 68 294 0.0 0.0 0.00 0.00 0.00 99 1014.0
20260903110923 68 304 0.0 0.0 0.00 0.00 0.00 99 1013.8
20260903110419 68 298 0.0 0.0 0.00 0.00 0.00 99 1013.8
20260903105914 69 289 0.0 0.0 0.00 0.00 0.00 99 1013.5
20260903105409 69 303 0.0 0.0 0.00 0.00 0.00 99 1013.4
20260903104909 69 304 0.0 0.0 0.00 0.00 0.00 99 1013.6
20260903104403 69 318 0.0 0.0 0.00 0.00 0.00 99 1013.5
20260903103900 69 304 0.0 0.0 0.00 0.00 0.00 99 1013.4
20260903103356 69 313 0.0 0.0 0.00 0.00 0.00 99 1013.3
20260903102850 69 303 0.0 0.0 0.00 0.00 0.00 99 1013.8
20260903102345 69 302 0.0 0.0 0.00 0.00 0.00 99 1013.5
20260903101844 69 304 0.0 0.0 0.00 0.00 0.00 99 1013.5
20260903101334 69 293 0.0 0.0 0.00 0.00 0.00 99 1013.2
20260903100830 69 291 0.0 0.0 0.00 0.00 0.00 99 1013.3
20260903100330 69 309 0.0 0.0 0.00 0.00 0.00 99 1013.2
20260903095827 69 309 0.0 0.0 0.00 0.00 0.00 99 1013.3
20260903095321 69 319 0.0 0.0 0.00 0.00 0.00 99 1013.5
20260903094816 69 320 0.0 0.0 0.00 0.00 0.00 99 1013.2
20260903094311 69 282 0.0 0.0 0.00 0.00 0.00 99 1013.5
20260903093807 69 268 0.0 0.0 0.00 0.00 0.00 99 1013.3
20260903093301 69 304 0.0 0.0 0.00 0.00 0.00 99 1013.4
20260903092756 69 298 0.0 0.0 0.00 0.00 0.00 99 1013.2
20260903092251 69 298 0.0 0.0 0.00 0.00 0.00 99 1013.3
20260903091750 69 293 0.0 0.0 0.00 0.00 0.00 99 1013.3
20260903091244 69 303 0.0 0.0 0.00 0.00 0.00 99 1013.1
20260903090740 70 308 0.0 0.0 0.00 0.00 0.00 99 1013.2
20260903090239 70 282 0.0 0.0 0.00 0.00 0.00 99 1013.1
20260903085737 70 280 0.0 0.0 0.00 0.00 0.00 99 1013.1
20260903085233 70 278 0.0 0.0 0.00 0.00 0.00 99 1013.4
20260903084730 70 313 0.0 0.0 0.00 0.00 0.00 99 1012.9
20260903084226 70 280 0.0 0.0 0.00 0.00 0.00 99 1012.9
20260903083721 70 317 0.0 0.0 0.00 0.00 0.00 99 1013.1
20260903083221 70 295 0.0 0.0 0.00 0.00 0.00 99 1013.1
20260903082715 70 303 0.0 0.0 0.00 0.00 0.00 99 1012.9
20260903082211 70 297 0.0 0.0 0.00 0.00 0.00 99 1013.0
20260903081710 70 329 0.0 0.0 0.00 0.00 0.00 99 1013.0
20260903081207 70 290 0.0 0.0 0.00 0.00 0.00 99 1013.0
20260903080703 70 282 0.0 0.0 0.00 0.00 0.00 99 1013.0
20260903080200 70 304 0.0 0.0 0.00 0.00 0.00 99 1012.6
20260903075659 70 301 0.0 0.0 0.00 0.00 0.00 99 1013.0
20260903075154 70 301 0.0 0.0 0.00 0.00 0.00 99 1012.9
20260903074653 70 300 0.0 0.0 0.00 0.00 0.00 99 1012.7
20260903074149 70 277 0.0 0.0 0.00 0.00 0.00 99 1012.7
20260903073644 70 287 0.0 0.0 0.00 0.00 0.00 99 1012.7
20260903073139 70 289 0.0 0.0 0.00 0.00 0.00 99 1012.9
20260903072634 70 274 0.0 0.0 0.00 0.00 0.00 99 1012.7
20260903072131 70 281 0.0 0.0 0.00 0.00 0.00 99 1013.0
20260903071627 70 305 0.0 0.0 0.00 0.00 0.00 99 1013.0
20260903071123 70 275 0.0 0.0 0.00 0.00 0.00 99 1013.1
20260903070623 70 273 0.0 0.0 0.00 0.00 0.00 99 1013.0
20260903070119 70 282 0.0 0.0 0.00 0.00 0.00 99 1013.2
20260903065618 70 299 0.0 0.0 0.00 0.00 0.00 99 1012.7
20260903065118 70 299 0.0 0.0 0.00 0.00 0.00 99 1012.9
20260903064612 70 302 0.0 0.0 0.00 0.00 0.00 99 1012.7
20260903064107 70 299 0.0 0.0 0.00 0.00 0.00 99 1012.9
20260903063603 70 315 0.0 0.0 0.00 0.00 0.00 99 1013.0
20260903063058 70 315 0.0 0.0 0.00 0.00 0.00 99 1012.9
20260903062554 71 316 0.0 0.0 0.00 0.00 0.00 99 1012.9
20260903062049 71 316 0.0 0.0 0.00 0.00 0.00 99 1012.9
20260903061544 71 322 0.0 0.0 0.00 0.00 0.00 99 1012.9
20260903061044 71 303 0.0 0.0 0.00 0.00 0.00 99 1012.9
20260903060543 71 322 0.0 0.0 0.00 0.00 0.00 99 1013.0
20260903060038 71 251 0.0 0.0 0.00 0.00 0.00 99 1013.1
20260903055536 71 294 0.0 0.0 0.00 0.00 0.00 99 1013.0
20260903055035 71 255 0.0 0.0 0.00 0.00 0.00 99 1013.0
20260903054530 71 283 0.0 0.0 0.00 0.00 0.00 99 1013.0
20260903054026 71 300 0.0 0.0 0.00 0.00 0.00 99 1012.7
20260903053526 71 299 0.0 0.0 0.00 0.00 0.00 99 1012.6
20260903053022 71 290 0.0 0.0 0.00 0.00 0.00 99 1012.6
20260903052517 71 294 0.0 0.0 0.00 0.00 0.00 99 1012.6
20260903052013 71 328 0.0 0.0 0.00 0.00 0.00 99 1012.7
20260903051508 71 318 0.0 0.0 0.00 0.00 0.00 99 1012.7
20260903051004 71 318 0.0 0.0 0.00 0.00 0.00 99 1012.3
20260903050503 72 317 0.0 0.0 0.00 0.00 0.00 99 1012.9
20260903045957 72 51 0.0 0.0 0.00 0.00 0.00 99 1012.7
20260903045453 72 300 0.0 0.0 0.00 0.00 0.00 99 1013.0
20260903044949 72 286 0.0 0.0 0.00 0.00 0.00 99 1012.9
20260903044445 72 283 0.0 0.0 0.00 0.00 0.00 99 1013.0
20260903043941 72 273 0.0 0.0 0.00 0.00 0.00 99 1012.6
20260903043436 72 259 0.0 0.0 0.00 0.00 0.00 99 1012.6
20260903042934 72 305 0.0 0.0 0.00 0.00 0.00 99 1012.5
20260903042430 72 313 0.0 0.0 0.00 0.00 0.00 99 1012.4
20260903041926 72 299 0.0 0.0 0.00 0.00 0.00 99 1012.6
20260903041422 72 300 0.0 0.0 0.00 0.00 0.00 99 1012.7
20260903040918 73 306 0.0 0.0 0.00 0.00 0.00 99 1012.7
20260903040416 73 275 0.0 0.0 0.00 0.00 0.00 99 1012.6
20260903035913 73 188 1.7 1.7 0.00 0.21 0.21 99 1012.6
20260903035408 72 221 0.0 0.0 0.00 0.21 0.21 99 1012.1
20260903034903 72 318 0.0 0.0 0.00 0.21 0.21 99 1012.0
20260903034358 72 291 0.0 0.0 0.00 0.21 0.21 99 1012.2
20260903033853 73 284 0.0 0.0 0.00 0.21 0.21 99 1011.9
20260903033348 73 290 0.0 0.0 0.00 0.21 0.21 99 1011.8
20260903032848 73 311 0.0 0.0 0.00 0.21 0.21 99 1011.8
20260903032344 73 310 0.0 0.0 0.00 0.21 0.21 99 1011.8
20260903031839 73 285 0.0 0.0 0.00 0.21 0.21 99 1011.9
20260903031338 73 311 0.0 0.0 0.00 0.21 0.21 99 1011.9
20260903030834 73 306 0.0 0.0 0.00 0.21 0.21 99 1012.0
20260903030330 73 312 0.0 0.0 0.00 0.21 0.21 99 1011.7
20260903025826 73 303 0.0 0.0 0.00 0.21 0.21 99 1012.0
20260903025321 73 291 0.0 0.0 0.00 0.21 0.21 99 1012.2
20260903024820 73 283 0.0 0.0 0.00 0.21 0.21 99 1012.1
20260903024320 73 270 0.0 0.0 0.00 0.21 0.21 99 1011.9
20260903023816 73 300 0.0 0.0 0.00 0.21 0.21 99 1011.5
20260903023311 74 312 0.0 0.0 0.00 0.21 0.21 99 1011.2
20260903022806 74 306 0.0 0.0 0.00 0.21 0.21 99 1011.3
20260903022306 74 317 0.0 0.0 0.00 0.21 0.21 99 1011.7
20260903021759 74 59 0.0 0.0 0.00 0.21 0.21 99 1011.9
20260903021255 74 292 0.0 0.0 0.00 0.21 0.21 99 1012.1
20260903020754 74 324 0.0 0.0 0.00 0.21 0.21 99 1012.4
20260903020249 74 322 0.0 0.0 0.00 0.21 0.21 99 1012.3
20260903015744 74 310 0.0 0.0 0.00 0.21 0.21 99 1012.5
20260903015240 74 50 0.0 0.0 0.00 0.21 0.21 99 1012.5
20260903014735 74 9 0.0 0.0 0.00 0.21 0.21 99 1012.4
20260903014234 75 258 0.0 0.0 0.00 0.21 0.21 99 1012.3
20260903013730 74 307 0.0 0.0 0.00 0.21 0.21 99 1012.4
20260903013229 75 292 0.0 0.0 0.00 0.21 0.21 99 1012.3
20260903012727 74 312 0.0 0.0 0.00 0.21 0.21 99 1012.4
20260903012221 75 308 0.0 0.0 0.00 0.21 0.21 99 1012.3
20260903011716 75 300 0.0 0.0 0.00 0.21 0.21 99 1012.3
20260903011209 75 321 0.0 0.0 0.00 0.21 0.21 99 1012.0
20260903010706 74 285 0.0 0.0 0.00 0.21 0.21 99 1012.0
20260903010205 75 287 0.0 0.0 0.00 0.21 0.21 99 1012.0
20260903005659 75 298 0.0 0.0 0.00 0.21 0.21 99 1011.9
20260903005154 75 319 0.0 0.0 0.00 0.21 0.21 99 1011.7
20260903004650 75 291 0.0 0.0 0.00 0.21 0.21 99 1011.8
20260903004144 75 291 0.0 0.0 0.00 0.21 0.21 98 1011.6
20260903003640 75 320 0.0 0.0 0.00 0.21 0.21 98 1011.7
20260903003135 75 322 0.0 0.0 0.00 0.21 0.21 97 1011.5
20260903002630 75 318 0.0 0.0 0.00 0.21 0.21 97 1011.6
20260903002124 75 300 0.0 0.0 0.00 0.21 0.21 97 1011.4
20260903001619 76 307 0.0 0.0 0.00 0.21 0.21 96 1011.6
20260903001113 76 304 0.0 0.0 0.00 0.21 0.21 96 1011.6
20260903000609 76 80 0.0 0.0 0.00 0.21 0.21 95 1011.4
20260903000108 76 293 0.0 0.0 0.00 0.21 0.21 95 1011.4
20260902235607 76 308 0.0 0.0 0.00 0.21 0.21 94 1011.7
20260902235102 77 328 0.0 0.0 0.00 0.21 0.21 94 1011.7
20260902234556 77 341 0.0 0.0 0.00 0.21 0.21 94 1011.7
20260902234055 77 99 0.0 0.0 0.00 0.21 0.21 95 1011.8
20260902233550 78 93 0.0 0.0 0.00 0.21 0.21 97 1011.8
20260902233044 77 335 0.0 0.0 0.00 0.21 0.21 96 1011.7
20260902232544 78 356 0.0 0.9 0.00 0.21 0.21 96 1011.9
20260902232038 79 38 0.9 0.9 0.00 0.21 0.21 97 1011.7
20260902231533 80 327 0.9 1.7 0.00 0.21 0.21 97 1011.6
20260902231033 80 4 0.0 0.0 0.00 0.21 0.21 96 1011.5
20260902230533 80 327 0.0 0.0 0.00 0.21 0.21 95 1011.3
20260902230026 80 281 0.0 0.0 0.00 0.21 0.21 95 1011.1
20260902225522 80 316 0.0 0.0 0.00 0.21 0.21 95 1011.0
20260902225016 80 306 0.0 0.0 0.00 0.21 0.21 95 1011.0
20260902224515 80 284 0.0 0.0 0.00 0.21 0.21 94 1011.0
20260902224011 81 293 0.0 0.0 0.00 0.21 0.21 92 1011.0
20260902223507 80 308 0.0 0.0 0.07 0.21 0.21 89 1011.1
20260902223006 82 298 0.0 0.0 0.07 0.21 0.21 87 1011.0
20260902222504 83 308 0.0 0.0 0.00 0.20 0.20 82 1011.0
20260902221958 83 19 0.0 0.0 0.00 0.20 0.20 78 1011.0
20260902221458 83 255 0.0 0.0 0.00 0.20 0.20 79 1011.2
20260902220953 83 25 0.0 0.0 0.00 0.20 0.20 79 1011.1
20260902220453 83 336 0.0 0.0 0.00 0.20 0.20 79 1011.2
20260902215942 86 209 2.6 4.3 0.00 0.20 0.20 77 1011.6
20260902215438 90 321 3.5 5.2 0.00 0.20 0.20 67 1011.5
20260902214934 92 251 1.7 1.7 0.00 0.20 0.20 65 1011.0
20260902214432 93 2 0.0 1.7 0.00 0.20 0.20 63 1010.6
20260902213927 92 222 0.9 1.7 0.00 0.20 0.20 64 1010.8
20260902213423 92 293 1.7 4.3 0.00 0.20 0.20 63 1010.1
20260902212922 91 275 6.1 7.0 0.00 0.20 0.20 63 1010.2
20260902212418 92 280 4.3 7.0 0.00 0.20 0.20 63 1009.9
20260902211914 91 272 4.3 5.2 0.00 0.20 0.20 64 1010.5
20260902211409 91 248 2.6 2.6 0.00 0.20 0.20 64 1011.0
20260902210859 93 270 0.0 0.0 0.00 0.20 0.20 64 1010.8
20260902210358 92 242 2.6 4.3 0.00 0.20 0.20 63 1011.0
20260902205857 92 289 4.3 5.2 0.00 0.20 0.20 62 1010.8
20260902205351 91 270 7.8 8.7 0.00 0.20 0.20 63 1010.8
20260902204848 92 236 1.7 6.1 0.00 0.20 0.20 63 1011.0
20260902204347 92 243 4.3 4.3 0.00 0.20 0.20 62 1011.0
20260902203843 92 122 1.7 2.6 0.00 0.20 0.20 62 1011.0
20260902203338 92 245 0.9 1.7 0.00 0.20 0.20 63 1011.0
20260902202832 93 266 4.3 6.1 0.00 0.20 0.20 63 1011.0
20260902202328 93 290 0.0 0.0 0.00 0.20 0.20 62 1010.9
20260902201824 92 218 1.7 1.7 0.00 0.20 0.20 63 1010.8
20260902201319 92 349 0.9 1.7 0.00 0.20 0.20 63 1010.9
20260902200814 92 322 0.9 1.7 0.00 0.20 0.20 63 1011.2
20260902200309 93 301 1.7 4.3 0.00 0.20 0.20 63 1011.4
20260902195805 93 225 0.9 1.7 0.00 0.20 0.20 63 1011.4
20260902195306 91 242 0.0 0.9 0.00 0.20 0.20 65 1011.7
20260902194758 91 256 0.0 0.9 0.00 0.20 0.20 65 1011.5
20260902194253 91 318 3.5 6.1 0.00 0.20 0.20 65 1011.5
20260902193748 92 312 3.5 4.3 0.00 0.20 0.20 64 1011.4
20260902193244 92 321 2.6 4.3 0.00 0.20 0.20 64 1011.8
20260902192743 93 279 0.9 1.7 0.00 0.20 0.20 64 1011.9
20260902192242 91 297 1.7 2.6 0.00 0.20 0.20 65 1011.9
20260902191736 92 224 3.5 6.1 0.00 0.20 0.20 66 1012.0
20260902191236 91 249 1.7 2.6 0.00 0.20 0.20 65 1012.1
20260902190732 91 307 2.6 4.3 0.00 0.20 0.20 66 1012.1
20260902190231 92 212 6.1 7.8 0.00 0.20 0.20 68 1012.2
20260902185727 92 284 0.0 0.0 0.00 0.20 0.20 69 1012.1
20260902185223 92 284 0.9 1.7 0.00 0.20 0.20 68 1012.5
20260902184718 92 270 3.5 4.3 0.00 0.20 0.20 68 1012.4
20260902184214 90 256 0.9 1.7 0.00 0.20 0.20 70 1012.3
20260902183710 90 281 3.5 4.3 0.00 0.20 0.20 70 1012.5
20260902183206 90 314 2.6 4.3 0.00 0.20 0.20 72 1012.4
20260902182702 91 277 0.0 0.0 0.00 0.20 0.20 72 1012.4
20260902182158 90 306 0.0 0.9 0.00 0.20 0.20 73 1012.7
20260902181654 89 264 4.3 5.2 0.00 0.20 0.20 74 1012.2
20260902181153 89 290 0.9 4.3 0.00 0.20 0.20 76 1012.5
20260902180648 89 228 0.0 0.0 0.00 0.20 0.20 74 1012.4
20260902180144 89 246 0.0 0.0 0.00 0.20 0.20 76 1012.5
20260902175643 89 297 0.0 0.0 0.00 0.20 0.20 76 1012.5
20260902175139 89 277 0.0 0.0 0.00 0.20 0.20 77 1012.6
20260902174635 89 320 0.0 0.0 0.00 0.20 0.20 77 1012.5
20260902174131 89 303 0.0 0.9 0.00 0.20 0.20 77 1012.6
20260902173626 89 268 0.0 0.0 0.00 0.20 0.20 77 1012.9
20260902173121 89 263 0.9 2.6 0.00 0.20 0.20 77 1012.6
20260902172615 88 250 0.0 0.0 0.00 0.20 0.20 78 1013.0
20260902172109 87 32 0.0 0.0 0.00 0.20 0.20 80 1012.9
20260902171605 86 291 3.5 4.3 0.00 0.20 0.20 80 1013.0
20260902171101 87 202 1.7 2.6 0.00 0.20 0.20 79 1013.2
20260902170556 87 293 1.7 2.6 0.00 0.20 0.20 81 1013.6
20260902170051 86 321 0.9 1.7 0.00 0.20 0.20 80 1013.6
20260902165551 86 275 0.0 0.9 0.00 0.20 0.20 82 1013.4
20260902165046 86 314 2.6 4.3 0.00 0.20 0.20 81 1013.7
20260902164541 86 278 1.7 1.7 0.00 0.20 0.20 83 1013.9
20260902164039 86 269 0.0 1.7 0.00 0.20 0.20 84 1013.6
20260902163536 86 274 0.0 0.0 0.00 0.20 0.20 84 1013.6
20260902163033 85 253 0.0 0.0 0.00 0.20 0.20 85 1013.8
20260902162527 86 303 1.7 2.6 0.00 0.20 0.20 85 1013.9
20260902162023 85 307 1.7 2.6 0.00 0.20 0.20 85 1013.9
20260902161518 85 204 0.0 0.0 0.00 0.20 0.20 85 1013.8
20260902161014 85 248 0.0 0.0 0.00 0.20 0.20 86 1013.8
20260902160509 86 343 0.0 0.0 0.00 0.20 0.20 86 1013.7
20260902160010 86 45 0.9 1.7 0.00 0.20 0.20 86 1013.8
20260902155503 85 64 0.0 0.9 0.00 0.20 0.20 89 1013.8
20260902155001 84 341 0.0 0.0 0.00 0.20 0.20 88 1013.8
20260902154456 84 267 1.7 1.7 0.00 0.20 0.20 88 1014.0
20260902153952 84 259 0.0 0.0 0.00 0.20 0.20 88 1013.7
20260902153450 84 302 2.6 4.3 0.00 0.20 0.20 88 1013.9
20260902152946 84 311 1.7 1.7 0.00 0.20 0.20 88 1013.8